• In Belarus
  • List of Countries
  • For 7 days
  • Water Temperature
  • Satellite Maps
  • Weather Map
  • Weather Widgets
  • user-avatar
    Login

    Hourly Weather Leipzig

    Today, 20 October, Friday

    Time Temperature Precipitation Wind Pressure Humidity
    00:00 +13°C° 0 mm 3 mps 750 mmHg 69%
    01:00 +13°C° 0 mm 3 mps 750 mmHg 68%
    02:00 +12°C° 0 mm 3 mps 750 mmHg 68%
    03:00 +12°C° 0 mm 3 mps 750 mmHg 68%
    04:00 +12°C° 0 mm 3 mps 750 mmHg 68%
    05:00 +12°C° 0 mm 3 mps 750 mmHg 67%
    06:00 +12°C° 0 mm 3 mps 750 mmHg 66%
    07:00 +12°C° 0 mm 3 mps 750 mmHg 66%
    08:00 +14°C° 0 mm 3 mps 750 mmHg 61%
    09:00 +16°C° 0 mm 3 mps 750 mmHg 57%
    10:00 +18°C° 0 mm 3 mps 750 mmHg 52%
    11:00 +19°C° 0 mm 4 mps 750 mmHg 52%
    12:00 +19°C° 0 mm 4 mps 750 mmHg 52%
    13:00 +20°C° 0 mm 4 mps 750 mmHg 52%
    14:00 +19°C° 0.2 mm 3 mps 750 mmHg 59%
    15:00 +18°C° 0.2 mm 3 mps 750 mmHg 67%
    16:00 +17°C° 0.2 mm 3 mps 750 mmHg 74%
    17:00 +16°C° 0.2 mm 3 mps 750 mmHg 77%
    18:00 +16°C° 0.2 mm 3 mps 750 mmHg 80%
    19:00 +14°C° 0.2 mm 4 mps 751 mmHg 83%
    20:00 +14°C° 0.1 mm 4 mps 751 mmHg 85%
    21:00 +13°C° 0.1 mm 4 mps 751 mmHg 86%
    22:00 +12°C° 0.1 mm 4 mps 751 mmHg 88%
    23:00 +12°C° 0 mm 4 mps 751 mmHg 89%

    Tomorrow, 21 October, Saturday

    Time Temperature Precipitation Wind Pressure Humidity
    00:00 +11°C° 0 mm 3 mps 751 mmHg 89%
    01:00 +10°C° 0 mm 3 mps 752 mmHg 89%
    02:00 +10°C° 0 mm 3 mps 752 mmHg 90%
    03:00 +9°C° 0 mm 3 mps 751 mmHg 90%
    04:00 +9°C° 0 mm 3 mps 751 mmHg 90%
    05:00 +9°C° 0 mm 3 mps 751 mmHg 89%
    06:00 +10°C° 0 mm 3 mps 751 mmHg 88%
    07:00 +10°C° 0 mm 2 mps 751 mmHg 87%
    08:00 +11°C° 0 mm 3 mps 751 mmHg 84%
    09:00 +12°C° 0 mm 3 mps 751 mmHg 81%
    10:00 +13°C° 0 mm 3 mps 751 mmHg 79%
    11:00 +16°C° 0 mm 3 mps 751 mmHg 75%
    12:00 +17°C° 0 mm 3 mps 750 mmHg 71%
    13:00 +18°C° 0 mm 3 mps 750 mmHg 68%
    14:00 +18°C° 0 mm 3 mps 750 mmHg 70%
    15:00 +18°C° 0 mm 2 mps 749 mmHg 72%
    16:00 +18°C° 0 mm 2 mps 749 mmHg 74%
    17:00 +17°C° 0.1 mm 2 mps 749 mmHg 77%
    18:00 +17°C° 0.1 mm 3 mps 749 mmHg 80%
    19:00 +16°C° 0.1 mm 3 mps 749 mmHg 84%
    20:00 +14°C° 0.8 mm 3 mps 750 mmHg 86%
    21:00 +14°C° 0.8 mm 3 mps 750 mmHg 89%
    22:00 +14°C° 0.8 mm 3 mps 750 mmHg 92%
    23:00 +14°C° 0.4 mm 4 mps 750 mmHg 90%

    Day after tomorrow, 22 October, Sunday

    Time Temperature Precipitation Wind Pressure Humidity
    00:00 +13°C° 0.4 mm 4 mps 750 mmHg 89%
    01:00 +13°C° 0.4 mm 5 mps 750 mmHg 87%
    02:00 +12°C° 0.1 mm 4 mps 750 mmHg 87%
    03:00 +12°C° 0.1 mm 4 mps 750 mmHg 87%
    04:00 +11°C° 0.1 mm 4 mps 750 mmHg 86%
    05:00 +11°C° 0 mm 4 mps 750 mmHg 86%
    06:00 +11°C° 0 mm 4 mps 750 mmHg 85%
    07:00 +9°C° 0 mm 5 mps 750 mmHg 85%
    08:00 +10°C° 0 mm 5 mps 751 mmHg 80%
    09:00 +10°C° 0 mm 6 mps 751 mmHg 76%
    10:00 +11°C° 0 mm 7 mps 751 mmHg 71%
    11:00 +11°C° 0 mm 7 mps 750 mmHg 69%
    12:00 +11°C° 0 mm 7 mps 750 mmHg 66%
    13:00 +12°C° 0 mm 7 mps 750 mmHg 64%
    14:00 +11°C° 0 mm 6 mps 750 mmHg 65%
    15:00 +12°C° 0 mm 5 mps 750 mmHg 66%
    16:00 +11°C° 0 mm 4 mps 750 mmHg 67%
    17:00 +11°C° 0 mm 4 mps 750 mmHg 70%
    18:00 +10°C° 0 mm 4 mps 750 mmHg 73%
    19:00 +9°C° 0 mm 3 mps 750 mmHg 77%
    20:00 +8°C° 0 mm 4 mps 750 mmHg 78%
    21:00 +8°C° 0 mm 4 mps 750 mmHg 80%
    22:00 +7°C° 0 mm 4 mps 750 mmHg 81%
    23:00 +7°C° 0 mm 4 mps 750 mmHg 82%

    23 October, Monday

    Time Temperature Precipitation Wind Pressure Humidity
    00:00 +7°C° 0 mm 4 mps 750 mmHg 84%
    01:00 +8°C° 0 mm 3 mps 750 mmHg 85%
    02:00 +7°C° 0 mm 3 mps 750 mmHg 86%
    03:00 +7°C° 0 mm 3 mps 750 mmHg 86%
    04:00 +7°C° 0 mm 3 mps 751 mmHg 87%
    05:00 +7°C° 0 mm 3 mps 751 mmHg 88%
    06:00 +5°C° 0 mm 3 mps 751 mmHg 89%
    07:00 +5°C° 0 mm 3 mps 751 mmHg 90%
    08:00 +6°C° 0 mm 4 mps 751 mmHg 85%
    09:00 +7°C° 0 mm 4 mps 751 mmHg 79%
    10:00 +10°C° 0 mm 4 mps 751 mmHg 74%
    11:00 +11°C° 0 mm 4 mps 751 mmHg 72%
    12:00 +12°C° 0 mm 4 mps 751 mmHg 69%
    13:00 +13°C° 0 mm 4 mps 751 mmHg 67%
    14:00 +12°C° 0.2 mm 4 mps 751 mmHg 72%
    15:00 +11°C° 0.2 mm 4 mps 751 mmHg 77%
    16:00 +11°C° 0.2 mm 3 mps 751 mmHg 82%
    17:00 +10°C° 0.3 mm 3 mps 751 mmHg 85%
    18:00 +10°C° 0.3 mm 3 mps 752 mmHg 87%
    19:00 +10°C° 0.3 mm 3 mps 752 mmHg 90%
    20:00 +10°C° 0.2 mm 3 mps 752 mmHg 90%
    21:00 +9°C° 0.2 mm 3 mps 752 mmHg 91%
    22:00 +9°C° 0.2 mm 3 mps 753 mmHg 91%
    23:00 +9°C° 0.1 mm 3 mps 753 mmHg 91%

    24 October, Tuesday

    Time Temperature Precipitation Wind Pressure Humidity
    00:00 +9°C° 0.1 mm 3 mps 753 mmHg 90%
    01:00 +9°C° 0.1 mm 3 mps 753 mmHg 90%
    02:00 +9°C° 0 mm 3 mps 753 mmHg 91%
    03:00 +8°C° 0 mm 2 mps 753 mmHg 91%
    04:00 +8°C° 0 mm 2 mps 753 mmHg 92%
    05:00 +8°C° 0 mm 2 mps 754 mmHg 92%
    06:00 +8°C° 0 mm 2 mps 754 mmHg 93%
    07:00 +9°C° 0 mm 1 mps 754 mmHg 93%
    08:00 +10°C° 0 mm 1 mps 755 mmHg 89%
    09:00 +11°C° 0 mm 1 mps 755 mmHg 85%
    10:00 +12°C° 0 mm 1 mps 755 mmHg 81%
    11:00 +13°C° 0 mm 1 mps 755 mmHg 76%
    12:00 +14°C° 0 mm 1 mps 755 mmHg 72%
    13:00 +15°C° 0 mm 1 mps 755 mmHg 68%
    14:00 +15°C° 0 mm 1 mps 755 mmHg 69%
    15:00 +15°C° 0 mm 1 mps 756 mmHg 71%
    16:00 +14°C° 0 mm 0 mps 756 mmHg 72%
    17:00 +14°C° 0 mm 1 mps 756 mmHg 76%
    18:00 +12°C° 0 mm 1 mps 756 mmHg 80%
    19:00 +10°C° 0 mm 2 mps 757 mmHg 85%
    20:00 +10°C° 0 mm 2 mps 757 mmHg 86%
    21:00 +10°C° 0 mm 2 mps 757 mmHg 88%
    22:00 +10°C° 0 mm 2 mps 757 mmHg 89%
    23:00 +10°C° 0 mm 2 mps 757 mmHg 89%

    25 October, Wednesday

    Time Temperature Precipitation Wind Pressure Humidity
    00:00 +10°C° 0 mm 2 mps 757 mmHg 89%
    01:00 +11°C° 0 mm 3 mps 757 mmHg 88%
    02:00 +11°C° 0 mm 3 mps 757 mmHg 90%
    03:00 +11°C° 0 mm 3 mps 757 mmHg 91%
    04:00 +11°C° 0 mm 3 mps 757 mmHg 93%
    05:00 +11°C° 0 mm 3 mps 757 mmHg 93%
    06:00 +11°C° 0 mm 3 mps 757 mmHg 93%
    07:00 +11°C° 0 mm 3 mps 757 mmHg 94%
    08:00 +12°C° 0 mm 3 mps 757 mmHg 90%
    09:00 +14°C° 0 mm 3 mps 758 mmHg 86%
    10:00 +15°C° 0 mm 4 mps 758 mmHg 83%
    11:00 +17°C° 0 mm 4 mps 758 mmHg 82%
    12:00 +17°C° 0 mm 4 mps 758 mmHg 80%
    13:00 +18°C° 0 mm 4 mps 758 mmHg 79%
    14:00 +18°C° 0 mm 3 mps 758 mmHg 80%
    15:00 +18°C° 0 mm 3 mps 758 mmHg 81%
    16:00 +18°C° 0 mm 3 mps 758 mmHg 81%
    17:00 +17°C° 0 mm 3 mps 758 mmHg 84%
    18:00 +16°C° 0 mm 3 mps 758 mmHg 88%
    19:00 +15°C° 0 mm 2 mps 758 mmHg 91%
    20:00 +15°C° 0 mm 2 mps 759 mmHg 92%
    21:00 +14°C° 0 mm 2 mps 759 mmHg 92%
    22:00 +14°C° 0 mm 2 mps 759 mmHg 93%
    23:00 +14°C° 0 mm 2 mps 759 mmHg 93%
    Show more